STARLINK-2019, 47641

Orbit data source: Space-Track

STARLINK-2019, 47641 is a payload satellite owned by SpaceX/Seattle (US) in LEO that was launched on Tue, 16 Feb 2021 UTC via an FALCON 9 launch vehicle from the Air Force Eastern Test Range (AFETR). Payload-class satellites include a variety of spacecraft equipped with specific instruments for various scientific and technological missions. These include communications satellites like Starlink; space stations such as the ISS; scientific satellites like the Hubble; Earth observation satellites from companies like Planet Labs, Umbra, and HawkEye 360; GPS; miniature CubeSats for education and research; and military/defense satellites.

Loading next visibility...
Identifier
47641, 2021-012X
Orbit
LEO
Country
Flag of USUS
Related business
Manufacturer
SpaceX/Seattle
Mission
Partially operational Commercial Communications
Bus & Motor
STARLINK, Unknown motor
Mass
260 kg wet, ~248 kg dry
Launch date (UTC)
2021-02-16 (5 years ago)
Launch vehicle
FALCON 9
Launch site
Air Force Eastern Test Range (AFETR)
Object type
Payload
Rocket body
Debris
Shape & HBR
Box + 1 Pan, 10.1 m
Radar Cross Section
13.562 m², Large (>1 m²)

Expand to show TLE details & history
Last TLE update: 2 days ago

TLE from 2 days ago
0 STARLINK-2019
1 47641U 21012X   26171.41668980  .00185588  00000-0  84823-3 0  9990
2 47641  53.0360 155.0722 0007414  31.5965 140.8240 15.82674779  5929
Epoch: 2026-06-20T10:00Z
TLE epoch observation values (Epoch: 2026-06-20T10:00:01.998Z)
Latitude
5.96338°
Longitude
-88.05106°
Altitude
327.061 km
Speed
7.712 km/s
True Right ascension
22h 02m 21s
True Declination
5° 55' 32"
Sunlit
Object was in full shadow at epoch
Visualization orbit readout
Latitude
Unknown
Longitude
Unknown
Altitude
Unknown
Speed
Unknown
Apparent Right ascension
Unknown
Apparent Declination
Unknown
Sunlit
N/A
Visualization observer readout
Local Sidereal Time
21:34:45
Azimuth
Unknown
Elevation
Unknown
Doppler factor
Unknown
Orbital elements
Apogee altitude
328.131 km
Perigee altitude
318.194 km
Semi-major axis
6,701.3 km
Eccentricity
0.00074
Inclination
53.036°
RAAN
155.0722°
Arg. of periapsis
31.5965°
True anomaly
140.87763°
Mean anomaly
140.824°
Eccentric anomaly
140.85082°
Mean motion
3.95644 °/min
Orbital period
90.99 mins
BSTAR
0.00084823
Loading maneuver chart data...
Computing Atmospheric mass density...

Documentation

Showing up to 5 results
|